Wendover, UT

7:18 AM MDT on April 30, 2017 (GMT -0600)
Wendover

Weather History for KENV - June, 2013

Change the Weather History Date:

Tuesday, June 18, 2013

  Actual Average Record
Temperature  
Mean Temperature 78 °F -  
Max Temperature 93 °F 83 °F 102 °F (1940)
Min Temperature 62 °F 59 °F 40 °F (1979)
Cooling Degree Days 12    
Growing Degree Days 28 (Base 50)    
Moisture  
Dew Point 23 °F    
Average Humidity 13    
Maximum Humidity 22    
Minimum Humidity 10    
Precipitation  
Precipitation 0.00 in - - ()
Sea Level Pressure  
Sea Level Pressure 29.79 in    
Wind  
Wind Speed 7 mph (SSE)    
Max Wind Speed 22 mph    
Max Gust Speed 31 mph    
Visibility 10 miles    
Events      
Averages and records for this station are not official NWS values.
T = Trace of Precipitation, MM = Missing Value Source: NWS Daily Summary

Daily Weather History Graph

Daily Weather History Graph

Search for Another Location

Airport or City:

Trip Planner

Search our weather history database for the weather conditions in past years. The results will help you decide how hot, cold, wet, or windy it might be!

Date:

Astronomy

Jun. 18, 2013 Rise Set
Actual Time 6:04 AM MDT 9:10 PM MDT
Civil Twilight 5:31 AM MDT 9:43 PM MDT
Nautical Twilight 4:48 AM MDT 10:26 PM MDT
Astronomical Twilight 3:58 AM MDT 11:16 PM MDT
Moon 3:58 PM MDT (6/18) 2:16 AM MDT (6/18)
Length of Visible Light 16h 12m
Length of Day
15h 05m
Waxing Gibbous, 71% of the Moon is Illuminated
Jun 18
Waxing Gibbous
Jun 23
Full
Jun 29
Last Quarter
Jul 8
New
Jul 15
First Quarter

Hourly Weather History & Observations

Time (MDT) Temp. Dew Point Humidity Pressure Visibility Wind Dir Wind Speed Gust Speed Precip Events Conditions
12:15 AM 69.8 °F 21.2 °F 16% 29.89 in 10.0 mi NNE 5.8 mph - N/A   Clear
12:35 AM 69.8 °F 19.4 °F 15% 29.89 in 10.0 mi NNE 6.9 mph - N/A   Clear
12:55 AM 71.6 °F 19.4 °F 14% 29.88 in 10.0 mi NNE 6.9 mph - N/A   Clear
1:15 AM 71.6 °F 19.4 °F 14% 29.90 in 10.0 mi South 5.8 mph - N/A   Clear
1:35 AM 66.2 °F 17.6 °F 15% 29.89 in 10.0 mi WNW 5.8 mph - N/A   Clear
1:55 AM 69.8 °F 19.4 °F 15% 29.88 in 10.0 mi WNW 3.5 mph - N/A   Partly Cloudy
2:15 AM 69.8 °F 21.2 °F 16% 29.88 in 10.0 mi SW 6.9 mph - N/A   Clear
2:35 AM 66.2 °F 15.8 °F 14% 29.88 in 10.0 mi South 3.5 mph - N/A   Clear
2:55 AM 64.4 °F 17.6 °F 16% 29.87 in 10.0 mi Calm Calm - N/A   Clear
3:15 AM 66.2 °F 19.4 °F 17% 29.87 in 10.0 mi West 9.2 mph - N/A   Clear
3:35 AM 69.8 °F 21.2 °F 16% 29.87 in 10.0 mi WNW 3.5 mph - N/A   Partly Cloudy
3:55 AM 64.4 °F 21.2 °F 19% 29.87 in 10.0 mi ESE 11.5 mph - N/A   Partly Cloudy
4:15 AM 64.4 °F 17.6 °F 16% 29.87 in 10.0 mi SE 9.2 mph - N/A   Clear
4:35 AM 64.4 °F 15.8 °F 15% 29.87 in 10.0 mi SSE 3.5 mph - N/A   Clear
4:55 AM 62.6 °F 17.6 °F 18% 29.88 in 10.0 mi WNW 8.1 mph - N/A   Clear
5:15 AM 62.6 °F 17.6 °F 18% 29.87 in 10.0 mi Calm Calm - N/A   Clear
5:35 AM 66.2 °F 21.2 °F 18% 29.87 in 10.0 mi SSW 5.8 mph - N/A   Clear
5:55 AM 62.6 °F 19.4 °F 19% 29.88 in 10.0 mi SSE 8.1 mph - N/A   Clear
6:15 AM 62.6 °F 19.4 °F 19% 29.88 in 10.0 mi West 3.5 mph - N/A   Clear
6:35 AM 66.2 °F 19.4 °F 17% 29.88 in 10.0 mi SW 4.6 mph - N/A   Clear
6:55 AM 62.6 °F 21.2 °F 20% 29.89 in 10.0 mi West 4.6 mph - N/A   Clear
7:15 AM 62.6 °F 23.0 °F 22% 29.89 in 10.0 mi WNW 4.6 mph - N/A   Clear
7:35 AM 64.4 °F 24.8 °F 22% 29.89 in 10.0 mi SSE 3.5 mph - N/A   Clear
7:55 AM 66.2 °F 21.2 °F 18% 29.89 in 10.0 mi Calm Calm - N/A   Clear
8:15 AM 69.8 °F 21.2 °F 16% 29.89 in 10.0 mi SE 6.9 mph - N/A   Clear
8:35 AM 71.6 °F 21.2 °F 15% 29.89 in 10.0 mi SSE 5.8 mph - N/A   Clear
8:55 AM 71.6 °F 21.2 °F 15% 29.89 in 10.0 mi ESE 5.8 mph - N/A   Clear
9:15 AM 71.6 °F 21.2 °F 15% 29.90 in 10.0 mi ESE 5.8 mph - N/A   Clear
9:35 AM 73.4 °F 24.8 °F 16% 29.90 in 10.0 mi SE 6.9 mph - N/A   Clear
9:55 AM 73.4 °F 24.8 °F 16% 29.89 in 10.0 mi Calm Calm - N/A   Clear
10:15 AM 75.2 °F 24.8 °F 15% 29.89 in 10.0 mi Calm Calm - N/A   Clear
10:35 AM 77.0 °F 23.0 °F 13% 29.88 in 10.0 mi SSE 4.6 mph - N/A   Clear
10:55 AM 78.8 °F 23.0 °F 13% 29.88 in 10.0 mi SE 4.6 mph - N/A   Clear
11:15 AM 78.8 °F 23.0 °F 13% 29.88 in 10.0 mi ESE 3.5 mph - N/A   Clear
11:35 AM 80.6 °F 23.0 °F 12% 29.87 in 10.0 mi East 4.6 mph - N/A   Clear
11:55 AM 80.6 °F 23.0 °F 12% 29.86 in 10.0 mi East 6.9 mph - N/A   Clear
12:15 PM 82.4 °F 24.8 °F 12% 29.86 in 10.0 mi ESE 8.1 mph - N/A   Clear
12:35 PM 84.2 °F 24.8 °F 11% 29.85 in 10.0 mi ESE 9.2 mph - N/A   Clear
12:55 PM 86.0 °F 26.6 °F 12% 29.84 in 10.0 mi East 11.5 mph 16.1 mph N/A   Clear
1:15 PM 86.0 °F 26.6 °F 12% 29.83 in 10.0 mi East 10.4 mph - N/A   Clear
1:35 PM 87.8 °F 26.6 °F 11% 29.82 in 10.0 mi ESE 10.4 mph - N/A   Clear
1:55 PM 87.8 °F 26.6 °F 11% 29.81 in 10.0 mi ESE 10.4 mph - N/A   Clear
2:15 PM 87.8 °F 26.6 °F 11% 29.80 in 10.0 mi ESE 8.1 mph - N/A   Clear
2:35 PM 89.6 °F 26.6 °F 10% 29.79 in 10.0 mi East 9.2 mph - N/A   Clear
2:55 PM 91.4 °F 26.6 °F 10% 29.78 in 10.0 mi ESE 10.4 mph - N/A   Clear
3:15 PM 91.4 °F 26.6 °F 10% 29.77 in 10.0 mi ESE 12.7 mph 17.3 mph N/A   Clear
3:35 PM 91.4 °F 28.4 °F 10% 29.76 in 10.0 mi East 9.2 mph - N/A   Clear
3:55 PM 91.4 °F 28.4 °F 10% 29.74 in 10.0 mi East 10.4 mph - N/A   Clear
4:15 PM 91.4 °F 28.4 °F 10% 29.73 in 10.0 mi East 11.5 mph - N/A   Clear
4:35 PM 93.2 °F 28.4 °F 10% 29.72 in 10.0 mi East 10.4 mph - N/A   Clear
4:55 PM 93.2 °F 28.4 °F 10% 29.70 in 10.0 mi East 11.5 mph 17.3 mph N/A   Clear
5:15 PM 93.2 °F 28.4 °F 10% 29.69 in 10.0 mi ENE 10.4 mph - N/A   Clear
5:35 PM 93.2 °F 28.4 °F 10% 29.67 in 10.0 mi East 9.2 mph - N/A   Clear
5:55 PM 93.2 °F 28.4 °F 10% 29.65 in 10.0 mi ESE 15.0 mph 18.4 mph N/A   Clear
6:15 PM 91.4 °F 28.4 °F 10% 29.64 in 10.0 mi SE 9.2 mph - N/A   Clear
6:35 PM 93.2 °F 28.4 °F 10% 29.63 in 10.0 mi South 10.4 mph - N/A   Clear
6:55 PM 93.2 °F 28.4 °F 10% 29.62 in 10.0 mi South 10.4 mph - N/A   Clear
7:15 PM 93.2 °F 28.4 °F 10% 29.61 in 10.0 mi South 20.7 mph - N/A   Clear
7:35 PM 91.4 °F 28.4 °F 10% 29.60 in 10.0 mi South 21.9 mph - N/A   Clear
7:55 PM 91.4 °F 28.4 °F 10% 29.60 in 10.0 mi WSW 16.1 mph 31.1 mph N/A   Clear
8:15 PM 89.6 °F 26.6 °F 10% 29.60 in 10.0 mi SW 17.3 mph - N/A   Clear
8:35 PM 89.6 °F 26.6 °F 10% 29.59 in 10.0 mi SW 17.3 mph - N/A   Clear
8:55 PM 87.8 °F 26.6 °F 11% 29.59 in 10.0 mi SW 15.0 mph - N/A   Clear
9:15 PM 86.0 °F 24.8 °F 11% 29.59 in 10.0 mi SW 13.8 mph - N/A   Clear
9:55 PM 84.2 °F 24.8 °F 11% 29.59 in 10.0 mi SSW 13.8 mph - N/A   Clear
10:15 PM 84.2 °F 23.0 °F 11% 29.59 in 10.0 mi SSW 12.7 mph - N/A   Clear
10:35 PM 82.4 °F 21.2 °F 10% 29.60 in 10.0 mi SSW 15.0 mph - N/A   Clear
10:55 PM 82.4 °F 21.2 °F 10% 29.60 in 10.0 mi South 13.8 mph - N/A   Clear
11:15 PM 82.4 °F 21.2 °F 10% 29.60 in 10.0 mi SSW 19.6 mph - N/A   Clear
11:35 PM 82.4 °F 21.2 °F 10% 29.60 in 10.0 mi SSW 19.6 mph 27.6 mph N/A   Clear
11:55 PM 80.6 °F 21.2 °F 11% 29.61 in 10.0 mi West 20.7 mph - N/A   Clear